Date String (YYYY-MM-DD hh:mm:ss) UTC,Instrument flags,Ambient pressure (hPa),Sample flow (lpm),Bypass flow (lpm),Sample temperature (°C),Ambient temperature (°C),ASC tube jacket temperature (°C),LED temperature (°C),Box temperature (°C),Sample RH (%),Span deviation,Mass concentration (μg/m³),Mass concentration (μg/m³),Mass concentration (μg/m³)
DateTimeUTC,F1_M11,P_M11,Q1_M11,Q2_M11,T1_M11,T2_M11,T3_M11,T4_M11,T5_M11,U1_M11,ZSPAN_M11,X2_M11,X0_M11,X1_M11
2022-07-05 20:00:00,,0826.2,5.01,0.00,29.3,28.1,00.0,38.0,31.3,22.8,0000.0,0002.59,0007.01,0001.50
2022-07-05 20:01:00,,0826.2,5.01,0.00,29.4,28.3,00.0,38.0,31.3,22.0,0000.0,0002.52,0007.15,0001.49
2022-07-05 20:02:00,,0826.2,5.00,0.00,29.4,28.3,00.0,38.0,31.4,21.7,0000.0,0002.52,0006.51,0001.48
2022-07-05 20:03:00,,0826.1,4.99,0.00,29.4,27.6,00.0,38.0,31.3,22.1,0000.0,0002.48,0005.56,0001.47
2022-07-05 20:04:00,,0826.2,5.00,0.00,29.4,27.1,00.0,37.9,31.2,21.9,0000.0,0002.31,0004.92,0001.45
2022-07-05 20:05:00,,0826.2,5.00,0.00,29.3,27.1,00.0,37.9,31.2,21.6,0000.0,0002.18,0004.67,0001.41
2022-07-05 20:06:00,,0826.2,5.00,0.00,29.3,27.2,00.0,38.0,31.1,21.7,0000.0,0002.07,0004.50,0001.40
2022-07-05 20:07:00,,0826.2,5.01,0.00,29.3,27.3,00.0,38.0,31.1,22.4,0000.0,0002.00,0004.35,0001.36
2022-07-05 20:08:00,,0826.1,5.00,0.00,29.3,27.5,00.0,38.0,31.1,23.0,0000.0,0001.89,0004.03,0001.33
2022-07-05 20:09:00,,0826.2,5.00,0.00,29.3,27.7,00.0,38.0,31.2,23.1,0000.0,0001.81,0003.94,0001.31
2022-07-05 20:10:00,,0826.2,5.00,0.00,29.3,27.9,00.0,38.0,31.2,23.0,0000.0,0001.78,0003.84,0001.27
2022-07-05 20:11:00,,0826.2,4.99,0.00,29.3,28.0,00.0,38.0,31.3,23.0,0000.0,0001.84,0003.81,0001.26
2022-07-05 20:12:00,,0826.2,5.00,0.00,29.4,28.2,00.0,38.0,31.3,23.0,0000.0,0001.87,0004.83,0001.24
2022-07-05 20:13:00,,0826.2,5.00,0.00,29.4,28.0,00.0,38.0,31.3,23.0,0000.0,0001.83,0004.90,0001.23
2022-07-05 20:14:00,,0826.2,5.01,0.00,29.4,27.3,00.0,38.0,31.2,22.6,0000.0,0001.77,0005.21,0001.22
2022-07-05 20:15:00,,0826.1,4.99,0.00,29.3,27.0,00.0,37.9,31.2,22.9,0000.0,0001.82,0005.37,0001.20
2022-07-05 20:16:00,,0826.0,4.99,0.00,29.3,27.0,00.0,37.9,31.1,23.1,0000.0,0001.83,0005.40,0001.20
2022-07-05 20:17:00,,0826.0,5.00,0.00,29.2,27.1,00.0,38.0,31.0,23.3,0000.0,0001.80,0005.31,0001.20
2022-07-05 20:18:00,,0826.0,5.00,0.00,29.2,27.3,00.0,38.0,31.0,22.6,0000.0,0001.82,0006.39,0001.21
2022-07-05 20:19:00,,0826.0,4.99,0.00,29.2,27.5,00.0,38.0,31.1,22.4,0000.0,0001.80,0007.09,0001.21
2022-07-05 20:20:00,,0826.0,5.01,0.00,29.3,27.7,00.0,38.0,31.2,22.6,0000.0,0001.79,0008.10,0001.21
2022-07-05 20:21:00,,0826.0,5.01,0.00,29.3,27.9,00.0,38.0,31.2,22.6,0000.0,0001.75,0008.00,0001.21
2022-07-05 20:22:00,,0826.0,5.00,0.00,29.3,28.1,00.0,38.0,31.3,22.5,0000.0,0001.71,0007.97,0001.20
2022-07-05 20:23:00,,0826.0,5.00,0.00,29.4,28.2,00.0,38.0,31.3,22.8,0000.0,0001.68,0006.97,0001.20
2022-07-05 20:24:00,,0826.0,4.99,0.00,29.4,28.3,00.0,38.0,31.4,22.7,0000.0,0001.68,0006.78,0001.20
2022-07-05 20:25:00,,0826.0,5.00,0.00,29.4,27.9,00.0,38.0,31.4,23.0,0000.0,0001.70,0006.41,0001.20
2022-07-05 20:26:00,,0826.0,5.01,0.00,29.4,27.3,00.0,38.0,31.3,23.2,0000.0,0001.63,0006.23,0001.20
2022-07-05 20:27:00,,0826.0,5.00,0.00,29.4,27.1,00.0,37.9,31.2,23.0,0000.0,0001.61,0006.40,0001.19
2022-07-05 20:28:00,,0826.0,5.00,0.00,29.3,27.2,00.0,38.0,31.1,22.8,0000.0,0001.59,0006.51,0001.16
2022-07-05 20:29:00,,0826.0,5.00,0.00,29.3,27.3,00.0,38.0,31.1,23.3,0000.0,0001.56,0005.87,0001.13
2022-07-05 20:30:00,,0826.0,5.00,0.00,29.3,27.5,00.0,38.0,31.1,23.7,0000.0,0001.58,0005.06,0001.12
2022-07-05 20:31:00,,0826.0,5.00,0.00,29.3,27.7,00.0,38.0,31.2,23.3,0000.0,0001.63,0003.36,0001.10
2022-07-05 20:32:00,,0826.0,5.00,0.00,29.3,27.9,00.0,38.0,31.2,23.0,0000.0,0001.68,0003.48,0001.09
2022-07-05 20:33:00,,0826.0,5.00,0.00,29.3,28.0,00.0,38.0,31.3,21.9,0000.0,0001.64,0004.05,0001.07
2022-07-05 20:34:00,,0825.9,5.00,0.00,29.4,28.2,00.0,38.1,31.3,21.6,0000.0,0001.67,0004.22,0001.07
2022-07-05 20:35:00,,0825.9,5.01,0.00,29.4,28.3,00.0,38.1,31.4,21.6,0000.0,0001.66,0004.19,0001.05
2022-07-05 20:36:00,,0825.9,4.99,0.00,29.4,28.1,00.0,38.0,31.4,21.7,0000.0,0001.64,0004.13,0001.03
2022-07-05 20:37:00,,0825.9,4.99,0.00,29.4,27.4,00.0,38.0,31.3,21.8,0000.0,0001.64,0004.23,0001.02
2022-07-05 20:38:00,,0825.8,5.00,0.00,29.4,27.1,00.0,38.0,31.3,21.3,0000.0,0001.65,0005.22,0001.02
2022-07-05 20:39:00,,0825.8,5.01,0.00,29.4,27.1,00.0,38.0,31.2,21.4,0000.0,0001.69,0005.19,0001.01
2022-07-05 20:40:00,,0825.8,5.01,0.00,29.3,27.3,00.0,38.0,31.1,21.7,0000.0,0001.69,0005.09,0001.01
2022-07-05 20:41:00,,0825.8,5.00,0.00,29.3,27.5,00.0,38.0,31.1,21.9,0000.0,0001.65,0004.94,0001.01
2022-07-05 20:42:00,,0825.8,5.00,0.00,29.3,27.7,00.0,38.0,31.2,22.2,0000.0,0001.60,0004.87,0001.00
2022-07-05 20:43:00,,0825.8,5.00,0.00,29.3,27.9,00.0,38.0,31.2,21.6,0000.0,0001.57,0004.93,0000.99
2022-07-05 20:44:00,,0825.9,5.00,0.00,29.4,28.0,00.0,38.1,31.3,21.5,0000.0,0001.57,0004.36,0000.99
2022-07-05 20:45:00,,0825.8,4.99,0.00,29.4,28.2,00.0,38.1,31.4,21.8,0000.0,0001.55,0004.14,0000.98
2022-07-05 20:46:00,,0825.9,5.01,0.00,29.4,28.3,00.0,38.1,31.4,21.9,0000.0,0001.51,0004.02,0000.98
2022-07-05 20:47:00,,0825.9,5.00,0.00,29.4,27.8,00.0,38.0,31.4,21.9,0000.0,0001.53,0004.04,0000.97
2022-07-05 20:48:00,,0825.8,5.00,0.00,29.4,27.1,00.0,38.0,31.3,22.5,0000.0,0001.51,0003.93,0000.96
2022-07-05 20:49:00,,0825.7,5.00,0.00,29.4,27.0,00.0,38.0,31.2,22.5,0000.0,0001.46,0002.66,0000.94
2022-07-05 20:50:00,,0825.7,4.99,0.00,29.3,27.1,00.0,38.0,31.2,22.3,0000.0,0001.42,0002.53,0000.93
2022-07-05 20:51:00,,0825.7,5.00,0.00,29.3,27.3,00.0,38.0,31.1,22.5,0000.0,0001.37,0002.35,0000.92
2022-07-05 20:52:00,,0825.7,5.00,0.00,29.3,27.5,00.0,38.0,31.1,22.2,0000.0,0001.39,0002.44,0000.91
2022-07-05 20:53:00,,0825.7,5.00,0.00,29.3,27.7,00.0,38.0,31.2,22.3,0000.0,0001.40,0002.37,0000.91
2022-07-05 20:54:00,,0825.7,5.00,0.00,29.3,27.9,00.0,38.0,31.3,22.7,0000.0,0001.36,0002.28,0000.89
2022-07-05 20:55:00,,0825.7,4.99,0.00,29.4,28.1,00.0,38.1,31.3,22.7,0000.0,0001.37,0003.31,0000.89
2022-07-05 20:56:00,,0825.7,4.99,0.00,29.4,28.2,00.0,38.1,31.4,22.5,0000.0,0001.30,0003.20,0000.88
2022-07-05 20:57:00,,0825.6,5.01,0.00,29.4,28.2,00.0,38.1,31.4,22.4,0000.0,0001.31,0003.23,0000.88
2022-07-05 20:58:00,,0825.6,5.01,0.00,29.4,27.5,00.0,38.0,31.3,22.5,0000.0,0001.31,0003.24,0000.88
2022-07-05 20:59:00,,0825.7,5.00,0.00,29.4,27.0,00.0,38.0,31.2,22.3,0000.0,0001.30,0003.20,0000.88
